Location: Cisewo
(53.3833°N, 14.9000°E)
Time: 11:43:03
(UTC+00:00)

SL-24 DEB - Pass Details

Date: 18 April 2021
Orbit: 664 x 700 km, 92.0° (Epoch: 14 May)

Event Time Altitude Azimuth Distance (km) Brightness Sun altitude
Exits shadow 21:43:09 53° 94° (E) 834 4.5 -23.4°
Maximum altitude 21:43:26 54° 79° (E) 825 4.5 -23.5°
Drops below altitude 10° 21:47:58 10° 3° (N) 2,117 7.7 -23.7°
Sets 21:50:15 0° 359° (N) 3,031 8.8 -23.8°
